STARLINK-1550 (46365 NORAD) Tracking and Keplerian Element Data

This shows tracking and keplerian element data for the satellite.

Feedback or suggestion? Click here.




ElementValue
Catalog46365
NameSTARLINK-1550
Epoch Orbit186
Epoch Day336.91667824
Epoch Year2020
RAAN351.4774
Inclination52.9971
Eccentricity0.0002355
Argument of Perigee19.9997
Mean Anonmoly309.4069
Mean Motion15.62755973
Decay Rate0.00031802
L11 46365U 20062AS 20336.91667824 .00031802 00000-0 35172-3 0 9996
L22 46365 52.9971 351.4774 0002355 19.9997 309.4069 15.62755973 1865

Live tracking and technical data element details for STARLINK-1550 (NORAD 46365). STARLINK-1550 can be tracked NOW for your location showing map with azimuth and elevation plus other details from your city location.

Track the satellite on the map from your city or location and see movement details for azimuth, elevation, latitude, longitude, range, height, and movement on the map or in text.







IsCatalogInMostPopularTable: catalog: 46365, numindb: 37
Update: records affected: 1



GetName: 46365 STARLINK-1550

Hit Count: updated at: Thu, 03 Dec 2020 07:11:53 GMT